This is the latest recevied weather packets stored in our database for station/object PY2XH-13. If no packets are shown the sender has not sent any weather packets the latest 10 day(s).
| Time | Temp. | Humidity | Pressure | Rain* | Wind** | Luminosity | Snow |
|---|---|---|---|---|---|---|---|
| 1777895164 | 20.56° C | 63% | 1035.7 hPa | - | - | - | - |
| 1777893364 | 20.56° C | 61% | 1035.2 hPa | - | - | - | - |
| 1777891564 | 19.44° C | 64% | 1034.8 hPa | - | - | - | - |
| 1777889764 | 20° C | 61% | 1034.7 hPa | - | - | - | - |
| 1777887964 | 21.11° C | 59% | 1034.5 hPa | - | - | - | - |
| 1777886164 | 20.56° C | 59% | 1034.1 hPa | - | - | - | - |
| 1777884364 | 21.11° C | 58% | 1033.8 hPa | - | - | - | - |
| 1777882564 | 21.11° C | 58% | 1033.2 hPa | - | - | - | - |
| 1777880764 | 21.11° C | 59% | 1033.3 hPa | - | - | - | - |
| 1777878964 | 21.11° C | 58% | 1033.6 hPa | - | - | - | - |
| 1777877165 | 21.11° C | 58% | 1034.2 hPa | - | - | - | - |
| 1777875364 | 21.11° C | 58% | 1034.2 hPa | - | - | - | - |
| 1777873564 | 21.11° C | 57% | 1034.7 hPa | - | - | - | - |
| 1777871764 | 21.11° C | 58% | 1034.7 hPa | - | - | - | - |
| 1777869965 | 21.11° C | 57% | 1034.8 hPa | - | - | - | - |
| 1777868164 | 21.11° C | 57% | 1035 hPa | - | - | - | - |
| 1777866364 | 21.11° C | 57% | 1035.3 hPa | - | - | - | - |
| 1777864564 | 21.11° C | 57% | 1035.7 hPa | - | - | - | - |
| 1777862764 | 21.11° C | 57% | 1035.7 hPa | - | - | - | - |
| 1777860964 | 21.67° C | 57% | 1035.9 hPa | - | - | - | - |
| 1777859164 | 21.67° C | 56% | 1036 hPa | - | - | - | - |
| 1777857364 | 21.11° C | 56% | 1036.1 hPa | - | - | - | - |
| 1777855564 | 21.67° C | 57% | 1036.3 hPa | - | - | - | - |
| 1777853764 | 21.67° C | 60% | 1036.3 hPa | - | - | - | - |
| 1777851965 | 21.11° C | 59% | 1036.3 hPa | - | - | - | - |
* Rain since midnight (hover to see other rain measurements)
** Current wind speed in m/s (hover to see current wind gust speed)